Jilin-1 GaoFen 07C 01 xing

operational
NORAD ID: 66995 Int'l Des: 2025-292 Owner: CGSTL Country: CN Constellation: jilin-1
LEOCIRCULARRETROGRADESSO

关于 Jilin-1 GaoFen 07C 01 xing

正在加载描述...

实时位置

正在加载3D地球...

即将过境

高度历史

Altitude vs Time

uPlot chart will show altitude changes over time

两行轨道根数

1 66995U 25292C 25345.87573492 .00001597 00000-0 11824-3 0 9990
2 66995 97.6530 58.4343 0014385 277.3974 82.5617 15.04519537 261
Epoch: Dec 11, 2025 • Age: 57 hours

当前状态

高度 557.3 km
速度 7.58 km/s
星下点 -20.73°S, 68.1°E
发射日期 Dec 10, 2025
运行时间 4 days
类型 other

技术详情

分类 Payload
质量 50.00 kg
干质量 50.00 kg
总质量 50.00 kg
长度 1.50 m
直径 1.00 m
跨度 1.50 m
形状 Box
制造商 CGSTL
平台类型 JL-1GF07
阶段状态 In Orbit
所有者/国家 CGSTL/CN

大型星座

Loading constellations...